Regional Weather Roundup
Issued by NWS

Home | Current Version | Previous Version | Graphics & Text | Print | Product List | Glossary On
Versions: 1 2 3 4 5 6 7 8 9 10 11 12 13 14 15 16 17 18 19 20 21 22 23 24 25 26 27 28 29 30 31 32 33 34 35 36 37 38 39 40 41 42 43 44 45 46 47 48 49 50
000
ASUS43 KFSD 291602
RWRSD

WEATHER ROUNDUP FOR SOUTH DAKOTA
NATIONAL WEATHER SERVICE SIOUX FALLS SD
1100 AM CDT FRI MAY 29 2015

NOTE: "FAIR" INDICATES FEW OR NO CLOUDS BELOW 12,000 FEET WITH NO
SIGNIFICANT WEATHER AND/OR OBSTRUCTIONS TO VISIBILITY.


SDZ001>005-009-010-012>017-291700-
NORTHWEST AND NORTH CENTRAL SOUTH DAKOTA

CITY           SKY/WX    TMP DP  RH WIND       PRES   REMARKS
BUFFALO          N/A     48  39  71 N17       30.19R
FAITH            N/A     47  43  86 N23G29    30.19R
MOBRIDGE       CLOUDY    51  45  79 N20G30    30.14R
$$

SDZ012>016-024>037-041>051-057-063-072>074-291700-
SOUTHWEST AND SOUTH CENTRAL SOUTH DAKOTA

CITY           SKY/WX    TMP DP  RH WIND       PRES   REMARKS
RAPID CTY ARPT CLOUDY    47  45  93 N24G31    30.21R
PIERRE         LGT RAIN  51  50  96 N26G36    30.09R
CUSTER         CLOUDY    47  43  86 N6        30.20S
ELLSWORTH AFB  LGT RAIN  47  47 100 N22G31    30.21R FOG
PHILIP         CLOUDY    50  48  93 N20G32    30.15R
PINE RIDGE     LGT RAIN  50  47  89 N13G22    30.16R FOG
WINNER         CLOUDY    60  54  80 N29G41    30.02R
$$

SDZ004>011-016>023-039-040-291700-
NORTHEAST SOUTH DAKOTA

CITY           SKY/WX    TMP DP  RH WIND       PRES   REMARKS
ABERDEEN       LGT RAIN  52  48  86 N17G33    30.09R
WATERTOWN      CLOUDY    51  48  89 N22G30    29.99R
BROOKINGS      CLOUDY    55  52  88 N16G25    29.95R
SISSETON         N/A     48  47  96 N28G38    30.04R
$$

SDZ017-020-022-023-036>040-048>070-291700-
SOUTHEAST SOUTH DAKOTA

CITY           SKY/WX    TMP DP  RH WIND       PRES   REMARKS
SIOUX FALLS    CLOUDY    67  63  87 NW5       29.89F
HURON            N/A    N/A N/A N/A MISG      29.99R
CHAMBERLAIN    HVY RAIN  54  53  96 N16G32    30.02R
MITCHELL       LGT RAIN  62  60  93 N23G29    29.94R
YANKTON        PTSUNNY   66  61  82 NW6       29.89S
$$

ABBREVIATIONS USED IN REMARKS
   TC - TEMPERATURE IN CELSIUS
  WCI - WIND CHILL INDEX
   HX - HEAT INDEX
  VSB - VISIBILITY



USA.gov is the U.S. government's official web portal to all federal, state and local government web resources and services.